Regional Weather Roundup
Issued by NWS Northern Indiana

Home | Current Version | Previous Version | Text Only | Print | Product List | Glossary On
Versions: 1 2 3 4 5 6 7 8 9 10 11 12 13 14 15 16 17 18 19 20 21 22 23 24 25 26 27 28 29 30 31 32 33 34 35 36 37 38 39 40 41 42 43 44 45 46 47 48 49 50
000
ASUS43 KIWX 300410
RWRIWX

KIWX WEATHER ROUNDUP
NATIONAL WEATHER SERVICE NORTHERN INDIANA
1200 AM EDT MON MAR 30 2015

NOTE: "FAIR" INDICATES FEW OR NO CLOUDS BELOW 12,000 FEET WITH NO
SIGNIFICANT WEATHER AND/OR OBSTRUCTIONS TO VISIBILITY.

* THESE STATIONS ARE NOT UNDER NWS QUALITY CONTROL. THEY ALSO MAY NOT
  REPORT WEATHER SUCH AS PRECIPITATION OR FOG.

INZ001>027-300500-
NORTHERN INDIANA

CITY           SKY/WX    TMP DP  RH WIND       PRES   REMARKS
GARY*          PTCLDY    43  30  61 W6        29.93R
VALPARAISO     CLOUDY    45  33  63 NW9G21    29.93R
MICHIGAN CITY* CLOUDY    43  32  65 NW12G18   29.93R
LAPORTE*       CLOUDY    46  35  66 NW10G22   29.92R
KNOX*            N/A     45  21  39 NW14G23   29.91R
SOUTH BEND     CLOUDY    44  34  67 W12       29.90R
GOSHEN         CLOUDY    44  34  67 W16G25    29.87R
MONTICELLO*    MOCLDY    44  37  76 NW17G26   29.94R
LOGANSPORT*    CLOUDY    43  37  81 W13       29.93R
ROCHESTER*     CLOUDY    46  39  76 W12       29.91R
WARSAW*        CLOUDY    43  36  75 W17       29.89R
ANGOLA*        CLOUDY    45  34  65 W16G24    29.82R
FORT WAYNE     CLOUDY    44  36  73 W20       29.87R
HUNTINGTON*    CLOUDY    44  33  66 W16G23    29.88R
PERU/GRISSOM   CLOUDY    45  39  78 W21G29    29.90R
MARION*        MOCLDY    43  37  78 W18       29.91R

$$
INZ028>050-300500-
CENTRAL INDIANA

CITY           SKY/WX    TMP DP  RH WIND       PRES   REMARKS
LAFAYETTE      CLOUDY    47  39  74 W15G25    29.96R
KOKOMO*          N/A     45  37  76 W18G28    29.92R
MUNCIE*        CLOUDY    45  37  73 SW14      29.90S
INDIANAPOLIS   CLOUDY    47  40  76 SW15      29.94R

$$
MIZ043>046-050>051-056>058-064>065-071>073-077>080-300500-
SOUTHWEST LOWER MICHIGAN

CITY           SKY/WX    TMP DP  RH WIND       PRES   REMARKS
BATTLE CREEK   CLOUDY    42  33  70 W17G29    29.80R
BENTON HARBOR  CLOUDY    41  33  73 W17G24    29.88R
COLDWATER*     CLOUDY    42  33  71 W15G25    29.82R
HILLSDALE*     CLOUDY    42  38  83 W16G26    29.79R
HOLLAND        CLOUDY    41  33  73 W14G23    29.83R
GRAND RAPIDS   CLOUDY    40  33  76 W22G31    29.78R
KALAMAZOO      CLOUDY    42  33  70 W20G29    29.82R
STURGIS*       CLOUDY    43  36  75 W14G23    29.84R
THREE RIVERS*  CLOUDY    43  33  68 NW17G25   29.85R

$$
OHZ001>008-015>018-024>025-300500-
NORTHWEST OHIO

CITY           SKY/WX    TMP DP  RH WIND       PRES   REMARKS
WAUSEON*       CLOUDY    41  34  75 SW18G25   29.80S
DEFIANCE       CLOUDY    42  35  76 SW9G20    29.83F
FINDLAY        CLOUDY    45  34  65 SW20G30   29.83F
TOLEDO EXPRESS CLOUDY    41  33  73 W20       29.80S
TOLEDO METCALF CLOUDY    42  33  70 SW22G29   29.81F
LIMA           LGT RAIN  43  34  70 SW20G26   29.86S

$$
AND FOR LAKE MICHIGAN COASTAL AND OPEN LAKE BUOY OBSERVATIONS

STATION/POSITION TEMP    WIND        PRES    VSBY  WAVE
                 AIR SEA DIR/SP/G                  HT/PER
                 (F)     (DEG/KT/KT) (MB)    (MI)  (FT/S)
CALUMET HARBOR    44     260/  7/ 11 1012.2R
MICHIGAN CITY     39     260/ 15/ 17   N/A
BURNS HARBOR      41     300/ 11/ 16 1013.9S
SAINT JOSEPH      37     230/  8/ 12 1012.9R

$$
&&


USA.gov is the U.S. government's official web portal to all federal, state and local government web resources and services.